Location: Naloco
(16.5478°S, 37.1017°E)
Time: 02:51:53
(UTC+00:00)

CZ-2C R/B - Pass Details

Date: 13 August 2020
Orbit: 785 x 870 km, 98.3° (Epoch: 23 September)

Event Time Altitude Azimuth Distance (km) Brightness Sun altitude
Rises 15:40:30 0° 51° (NE) 3,333 5.4 -5.0°
Reaches altitude 10° 15:43:44 10° 72° (ENE) 2,426 4.6 -5.8°
Maximum altitude 15:46:53 16° 109° (ESE) 2,059 4.1 -6.5°
Drops below altitude 10° 15:50:05 10° 144° (SE) 2,472 4.7 -7.3°
Sets 15:53:24 0° 165° (SSE) 3,430 5.6 -8.0°
